Time,TemperatureF,DewpointF,PressureIn,WindDirection,WindDirectionDegrees,WindSpeedMPH,WindSpeedGustMPH,Humidity,HourlyPrecipIn,Conditions,Clouds,dailyrainin,SoftwareType,DateUTC
2017-12-14 00:10:00,5.3,2.0,29.62,West,274,0.0,1.0,86,0.00,,,0.00,weatherlink.com 1.10,2017-12-14 05:10:00,
2017-12-14 00:25:00,4.5,1.0,29.61,SSE,162,0.0,0.0,85,0.00,,,0.00,weatherlink.com 1.10,2017-12-14 05:25:00,
2017-12-14 00:41:00,4.2,1.0,29.61,SSW,199,0.0,1.0,86,0.00,,,0.00,weatherlink.com 1.10,2017-12-14 05:41:00,
2017-12-14 00:56:00,4.1,1.0,29.61,SSW,198,0.0,0.0,86,0.00,,,0.00,weatherlink.com 1.10,2017-12-14 05:56:00,
2017-12-14 01:10:00,4.1,1.0,29.61,SSW,210,0.0,0.0,86,0.00,,,0.00,weatherlink.com 1.10,2017-12-14 06:10:00,
2017-12-14 01:26:00,3.5,0.0,29.61,SSW,210,0.0,0.0,86,0.00,,,0.00,weatherlink.com 1.10,2017-12-14 06:26:00,
2017-12-14 01:41:00,3.5,0.0,29.61,SSE,165,0.0,0.0,86,0.00,,,0.00,weatherlink.com 1.10,2017-12-14 06:41:00,
2017-12-14 02:11:00,3.6,0.0,29.61,SE,134,0.0,0.0,86,0.00,,,0.00,weatherlink.com 1.10,2017-12-14 07:11:00,
2017-12-14 02:26:00,3.6,0.0,29.61,SE,134,0.0,1.0,86,0.00,,,0.00,weatherlink.com 1.10,2017-12-14 07:26:00,
2017-12-14 02:41:00,3.6,0.0,29.62,North,357,3.0,3.0,86,0.00,,,0.00,weatherlink.com 1.10,2017-12-14 07:41:00,
2017-12-14 02:56:00,3.2,0.0,29.62,NNE,12,2.0,5.0,86,0.00,,,0.00,weatherlink.com 1.10,2017-12-14 07:56:00,
2017-12-14 03:11:00,2.6,-1.0,29.62,NNE,15,5.0,5.0,86,0.00,,,0.00,weatherlink.com 1.10,2017-12-14 08:11:00,
2017-12-14 03:41:00,1.6,-2.0,29.62,North,358,1.0,4.0,86,0.00,,,0.00,weatherlink.com 1.10,2017-12-14 08:41:00,
2017-12-14 03:56:00,1.2,-2.0,29.62,North,4,3.0,4.0,85,0.00,,,0.00,weatherlink.com 1.10,2017-12-14 08:56:00,
2017-12-14 04:11:00,0.6,-3.0,29.62,NW,315,0.0,4.0,85,0.00,,,0.00,weatherlink.com 1.10,2017-12-14 09:11:00,
2017-12-14 04:26:00,0.3,-3.0,29.63,North,353,0.0,3.0,85,0.00,,,0.00,weatherlink.com 1.10,2017-12-14 09:26:00,
2017-12-14 04:41:00,-0.3,-4.0,29.63,NNW,347,1.0,4.0,85,0.00,,,0.00,weatherlink.com 1.10,2017-12-14 09:41:00,
2017-12-14 04:57:00,-0.8,-4.0,29.64,NNE,20,1.0,6.0,85,0.00,,,0.00,weatherlink.com 1.10,2017-12-14 09:57:00,
2017-12-14 05:11:00,-1.4,-5.0,29.65,North,360,1.0,4.0,85,0.00,,,0.00,weatherlink.com 1.10,2017-12-14 10:11:00,
2017-12-14 05:27:00,-2.0,-5.0,29.66,NNW,333,0.0,3.0,85,0.00,,,0.00,weatherlink.com 1.10,2017-12-14 10:27:00,
2017-12-14 05:41:00,-2.1,-6.0,29.66,North,360,2.0,4.0,85,0.00,,,0.00,weatherlink.com 1.10,2017-12-14 10:41:00,
2017-12-14 05:57:00,-2.1,-6.0,29.68,North,357,2.0,3.0,85,0.00,,,0.00,weatherlink.com 1.10,2017-12-14 10:57:00,
2017-12-14 06:12:00,-2.2,-6.0,29.69,NNE,16,3.0,5.0,85,0.00,,,0.00,weatherlink.com 1.10,2017-12-14 11:12:00,
2017-12-14 06:27:00,-2.5,-6.0,29.69,ENE,61,2.0,7.0,85,0.00,,,0.00,weatherlink.com 1.10,2017-12-14 11:27:00,
2017-12-14 06:42:00,-2.7,-6.0,29.70,NNE,15,1.0,5.0,85,0.00,,,0.00,weatherlink.com 1.10,2017-12-14 11:42:00,
2017-12-14 06:57:00,-2.8,-6.0,29.71,North,360,0.0,2.0,85,0.00,,,0.00,weatherlink.com 1.10,2017-12-14 11:57:00,
2017-12-14 07:12:00,-3.4,-7.0,29.72,NNE,13,0.0,0.0,84,0.00,,,0.00,weatherlink.com 1.10,2017-12-14 12:12:00,
2017-12-14 07:27:00,-5.2,-9.0,29.73,NW,307,5.0,6.0,83,0.00,,,0.00,weatherlink.com 1.10,2017-12-14 12:27:00,
2017-12-14 07:42:00,-4.9,-8.0,29.73,NW,307,3.0,3.0,85,0.00,,,0.00,weatherlink.com 1.10,2017-12-14 12:42:00,
2017-12-14 07:58:00,-5.2,-9.0,29.75,NNW,347,1.0,3.0,84,0.00,,,0.00,weatherlink.com 1.10,2017-12-14 12:58:00,
2017-12-14 08:12:00,-5.4,-9.0,29.76,NW,312,3.0,4.0,84,0.00,,,0.00,weatherlink.com 1.10,2017-12-14 13:12:00,
2017-12-14 08:27:00,-5.6,-9.0,29.77,NNW,332,5.0,7.0,84,0.00,,,0.00,weatherlink.com 1.10,2017-12-14 13:27:00,
2017-12-14 08:42:00,-5.1,-9.0,29.78,North,349,2.0,7.0,83,0.00,,,0.00,weatherlink.com 1.10,2017-12-14 13:42:00,
2017-12-14 08:57:00,-4.7,-9.0,29.79,WNW,290,3.0,5.0,83,0.00,,,0.00,weatherlink.com 1.10,2017-12-14 13:57:00,
2017-12-14 09:13:00,-3.8,-8.0,29.80,West,280,0.0,3.0,83,0.00,,,0.00,weatherlink.com 1.10,2017-12-14 14:13:00,
2017-12-14 09:28:00,-3.1,-7.0,29.81,WSW,254,2.0,3.0,82,0.00,,,0.00,weatherlink.com 1.10,2017-12-14 14:28:00,
2017-12-14 09:43:00,-2.6,-7.0,29.82,WNW,294,0.0,5.0,82,0.00,,,0.00,weatherlink.com 1.10,2017-12-14 14:43:00,
2017-12-14 09:58:00,-1.7,-6.0,29.82,WNW,298,1.0,3.0,82,0.00,,,0.00,weatherlink.com 1.10,2017-12-14 14:58:00,
2017-12-14 10:13:00,-1.4,-6.0,29.83,NW,307,2.0,4.0,82,0.00,,,0.00,weatherlink.com 1.10,2017-12-14 15:13:00,
2017-12-14 10:28:00,-0.3,-4.0,29.84,SSW,203,0.0,3.0,83,0.00,,,0.00,weatherlink.com 1.10,2017-12-14 15:28:00,
2017-12-14 10:43:00,0.3,-4.0,29.84,WNW,285,0.0,5.0,82,0.00,,,0.00,weatherlink.com 1.10,2017-12-14 15:43:00,
2017-12-14 10:58:00,1.2,-3.0,29.84,WNW,294,7.0,8.0,82,0.00,,,0.00,weatherlink.com 1.10,2017-12-14 15:58:00,
2017-12-14 11:13:00,2.5,-2.0,29.85,West,279,3.0,11.0,80,0.00,,,0.00,weatherlink.com 1.10,2017-12-14 16:13:00,
2017-12-14 11:28:00,4.0,-1.0,29.85,WSW,258,0.0,11.0,78,0.00,,,0.00,weatherlink.com 1.10,2017-12-14 16:28:00,
2017-12-14 11:44:00,4.6,-1.0,29.85,NW,326,4.0,11.0,76,0.00,,,0.00,weatherlink.com 1.10,2017-12-14 16:44:00,
2017-12-14 11:59:00,5.1,0.0,29.86,WSW,242,3.0,14.0,79,0.00,,,0.00,weatherlink.com 1.10,2017-12-14 16:59:00,
2017-12-14 12:14:00,5.6,0.0,29.86,WSW,252,12.0,16.0,78,0.00,,,0.00,weatherlink.com 1.10,2017-12-14 17:14:00,
2017-12-14 12:29:00,6.2,1.0,29.86,West,260,7.0,12.0,78,0.00,,,0.00,weatherlink.com 1.10,2017-12-14 17:29:00,
2017-12-14 12:44:00,6.8,1.0,29.87,West,280,6.0,18.0,77,0.00,,,0.00,weatherlink.com 1.10,2017-12-14 17:44:00,
2017-12-14 12:59:00,7.3,2.0,29.87,WNW,285,9.0,15.0,78,0.00,,,0.00,weatherlink.com 1.10,2017-12-14 17:59:00,
2017-12-14 13:14:00,7.2,2.0,29.87,West,266,8.0,17.0,78,0.00,,,0.00,weatherlink.com 1.10,2017-12-14 18:14:00,
2017-12-14 13:30:00,7.3,2.0,29.88,NW,319,5.0,17.0,78,0.00,,,0.00,weatherlink.com 1.10,2017-12-14 18:30:00,
2017-12-14 13:44:00,7.7,2.0,29.88,West,267,6.0,16.0,77,0.00,,,0.00,weatherlink.com 1.10,2017-12-14 18:44:00,
2017-12-14 13:59:00,7.5,2.0,29.89,WNW,290,4.0,16.0,79,0.00,,,0.00,weatherlink.com 1.10,2017-12-14 18:59:00,
2017-12-14 14:14:00,7.7,3.0,29.90,WSW,252,7.0,16.0,79,0.00,,,0.00,weatherlink.com 1.10,2017-12-14 19:14:00,
2017-12-14 14:29:00,8.3,3.0,29.90,West,277,4.0,12.0,80,0.00,,,0.00,weatherlink.com 1.10,2017-12-14 19:29:00,
2017-12-14 14:45:00,8.7,4.0,29.90,WNW,290,7.0,14.0,80,0.00,,,0.00,weatherlink.com 1.10,2017-12-14 19:45:00,
2017-12-14 14:59:00,8.4,4.0,29.91,West,277,6.0,13.0,82,0.00,,,0.00,weatherlink.com 1.10,2017-12-14 19:59:00,
2017-12-14 15:14:00,8.4,4.0,29.92,West,281,6.0,16.0,82,0.00,,,0.00,weatherlink.com 1.10,2017-12-14 20:14:00,
2017-12-14 15:29:00,8.6,4.0,30.03,WNW,283,4.0,10.0,81,0.00,,,0.00,weatherlink.com 1.10,2017-12-14 20:29:00,
2017-12-14 15:45:00,8.8,4.0,29.92,West,274,7.0,14.0,80,0.00,,,0.00,weatherlink.com 1.10,2017-12-14 20:45:00,
2017-12-14 16:00:00,8.4,4.0,29.93,WSW,252,6.0,16.0,81,0.00,,,0.00,weatherlink.com 1.10,2017-12-14 21:00:00,
2017-12-14 16:15:00,7.9,3.0,29.93,West,272,3.0,12.0,81,0.00,,,0.00,weatherlink.com 1.10,2017-12-14 21:15:00,
2017-12-14 16:30:00,7.4,3.0,29.94,SW,224,4.0,13.0,81,0.00,,,0.00,weatherlink.com 1.10,2017-12-14 21:30:00,
2017-12-14 16:45:00,7.0,2.0,29.94,WNW,290,3.0,12.0,80,0.00,,,0.00,weatherlink.com 1.10,2017-12-14 21:45:00,
2017-12-14 17:00:00,7.0,2.0,29.95,West,271,4.0,14.0,80,0.00,,,0.00,weatherlink.com 1.10,2017-12-14 22:00:00,
2017-12-14 17:15:00,7.2,3.0,29.96,WNW,285,2.0,11.0,81,0.00,,,0.00,weatherlink.com 1.10,2017-12-14 22:15:00,
2017-12-14 17:30:00,8.0,4.0,29.96,NW,304,3.0,18.0,83,0.00,,,0.00,weatherlink.com 1.10,2017-12-14 22:30:00,
2017-12-14 17:45:00,8.4,4.0,29.97,West,271,4.0,13.0,83,0.00,,,0.00,weatherlink.com 1.10,2017-12-14 22:45:00,